User: anonymous   Login
Location: Unspecified
(0.0000°N, 0.0000°E)
Time: 19:15:55
(UTC+01:00)
Language:

CZ-4 R/B - Orbit

View from above orbital plane
View from above orbital plane
View from above satellite
View from above satellite

Ground track
Ground track

The orbit data is extracted from the following two-line orbital elements,

1 28059U 03049C   17080.68250765 -.00000042 +00000-0 +18607-5 0  9999
2 28059 098.5741 324.8203 0050667 153.0145 268.2310 14.52479499710986
Epoch (UTC): 21 March 2017 16:22:48
Eccentricity: 0.0050667
inclination: 98.5741°
perigee height: 681 km
apogee height: 753 km
right ascension of ascending node: 324.8203°
argument of perigee: 153.0145°
revolutions per day: 14.52479499
mean anomaly at epoch: 268.2310°
orbit number at epoch: 71098

The dashed part of the orbit path shows where the satellite is in the earth's shadow,  

DLR